Satellite: NO-44
Catalog number: 26931
Epoch time:      11061.84488080
Element set:     692
Inclination:      067.0506 deg
RA of node:       257.5371 deg
Eccentricity:    0.0007039
Arg of perigee:   271.6407 deg
Mean anomaly:     088.3932 deg
Mean motion:   14.29636427 rev/day
Decay rate:       1.43e-06 rev/day^2
Epoch rev:           49172
Checksum:              313

Satellite: SO-50
Catalog number: 27607
Epoch time:      11061.92476130
Element set:    0406
Inclination:      064.5598 deg
RA of node:       290.5516 deg
Eccentricity:    0.0060897
Arg of perigee:   345.9384 deg
Mean anomaly:     014.0002 deg
Mean motion:   14.71653317 rev/day
Decay rate:        4.0e-08 rev/day^2
Epoch rev:           44045
Checksum:              287

Satellite: CO-55
Catalog number: 27844
Epoch time:      11062.61315431
Element set:      57
Inclination:      098.7085 deg
RA of node:       072.8427 deg
Eccentricity:    0.0009944
Arg of perigee:   138.6514 deg
Mean anomaly:     221.5412 deg
Mean motion:   14.20772846 rev/day
Decay rate:        9.3e-07 rev/day^2
Epoch rev:           39792
Checksum:              313

Satellite: CO-57
Catalog number: 27848
Epoch time:      11061.55425358
Element set:    0004
Inclination:      098.7147 deg
RA of node:       070.9534 deg
Eccentricity:    0.0009990
Arg of perigee:   146.9587 deg
Mean anomaly:     213.2234 deg
Mean motion:   14.20557150 rev/day
Decay rate:        7.3e-07 rev/day^2
Epoch rev:           39772
Checksum:              318

Satellite: AO-51
Catalog number: 28375
Epoch time:      11061.50668834
Element set:     909
Inclination:      098.0864 deg
RA of node:       045.6236 deg
Eccentricity:    0.0085044
Arg of perigee:   033.8309 deg
Mean anomaly:     326.8268 deg
Mean motion:   14.40727467 rev/day
Decay rate:        6.5e-07 rev/day^2
Epoch rev:           35070
Checksum:              320

Satellite: CP3
Catalog number: 31129
Epoch time:      11062.60951959
Element set:     811
Inclination:      097.9109 deg
RA of node:       092.8806 deg
Eccentricity:    0.0102755
Arg of perigee:   148.3927 deg
Mean anomaly:     212.3521 deg
Mean motion:   14.52385291 rev/day
Decay rate:       2.98e-06 rev/day^2
Epoch rev:           20551
Checksum:              302

Satellite: CO-65
Catalog number: 32785
Epoch time:      11061.39588978
Element set:    0930
Inclination:      097.8615 deg
RA of node:       127.2828 deg
Eccentricity:    0.0015163
Arg of perigee:   160.4431 deg
Mean anomaly:     199.7383 deg
Mean motion:   14.81839191 rev/day
Decay rate:       1.09e-06 rev/day^2
Epoch rev:           15372
Checksum:              338

Satellite: KKS-1
Catalog number: 33493
Epoch time:      11062.66679885
Element set:     361
Inclination:      098.1090 deg
RA of node:       189.8604 deg
Eccentricity:    0.0020334
Arg of perigee:   025.2905 deg
Mean anomaly:     334.9301 deg
Mean motion:   14.81352996 rev/day
Decay rate:       6.78e-06 rev/day^2
Epoch rev:           11389
Checksum:              320

Satellite: SOHLA-1
Catalog number: 33496
Epoch time:      11062.51566337
Element set:     348
Inclination:      098.0682 deg
RA of node:       173.4845 deg
Eccentricity:    0.0007683
Arg of perigee:   098.8504 deg
Mean anomaly:     261.3580 deg
Mean motion:   14.69561835 rev/day
Decay rate:       2.22e-06 rev/day^2
Epoch rev:           11296
Checksum:              318

Satellite: TISAT-1
Catalog number: 36799
Epoch time:      11062.70079988
Element set:     635
Inclination:      098.1138 deg
RA of node:       129.8695 deg
Eccentricity:    0.0014223
Arg of perigee:   256.8376 deg
Mean anomaly:     103.1260 deg
Mean motion:   14.80335008 rev/day
Decay rate:       4.57e-06 rev/day^2
Epoch rev:            3470
Checksum:              311

Satellite: STUDSAT
Catalog number: 36801
Epoch time:      11062.77111686
Element set:     142
Inclination:      098.1157 deg
RA of node:       129.7894 deg
Eccentricity:    0.0012972
Arg of perigee:   244.7384 deg
Mean anomaly:     115.2485 deg
Mean motion:   14.80055226 rev/day
Decay rate:      1.413e-05 rev/day^2
Epoch rev:            3470
Checksum:              286

Satellite: RAX
Catalog number: 37223
Epoch time:      11047.27696737
Element set:    0084
Inclination:      071.9744 deg
RA of node:       305.5778 deg
Eccentricity:    0.0020243
Arg of perigee:   156.1195 deg
Mean anomaly:     204.0952 deg
Mean motion:   14.77236729 rev/day
Decay rate:       2.10e-06 rev/day^2
Epoch rev:           01303
Checksum:              284

Satellite: OOREOS
Catalog number: 37224
Epoch time:      11043.43618410
Element set:    0081
Inclination:      071.9758 deg
RA of node:       314.1598 deg
Eccentricity:    0.0019424
Arg of perigee:   162.0076 deg
Mean anomaly:     198.1778 deg
Mean motion:   14.76892599 rev/day
Decay rate:       2.19e-06 rev/day^2
Epoch rev:           01245
Checksum:              307

Satellite: NANOSALD
Catalog number: 37225
Epoch time:      11061.29826209
Element set:    0063
Inclination:      071.9782 deg
RA of node:       274.6600 deg
Eccentricity:    0.0027514
Arg of perigee:   083.3818 deg
Mean anomaly:     277.0830 deg
Mean motion:   14.79496660 rev/day
Decay rate:     3.0671e-04 rev/day^2
Epoch rev:           00620
Checksum:              295

